Main page
METAR-TAF:

METAR-TAF

Airports :

Lábrea Airport

Lábrea, Amazonas, Brazil

latitude: 07-15-01S, longitude: 064-47-02W, elevation: 58 m

Current weather observation

The report was made 37 minutes ago, at 16:00 UTC
Wind 23 kt from the North
Temperature 28°C
Humidity 74%
Pressure 1009 hPa
Visibility 10 km or more

METAR: SBLB 211600Z AUTO 01023KT 9999 NCD 28/23 Q1009 W28/S4

Time: 12:37 (16:37 UTC)


TAF: missing

Weather observations and forecasts of more than 4000 airports (METAR and TAF reports).

The available stations are represented by yellow and red dots on the map.

Hover mouse over dot to see the name of the station.

Then click to see weather observations and forecasts.

To change the map : click on the green buttons with a black cross to zoom in, on the green button with a dash to zoom out, or on the green arrows for adjacent maps.


METAR-TAF: